Location: Table Mountain
(47.2500°N, 120.5778°W)
Time: 10:27:14
(UTC-07:00)

Vanguard 1 - All Passes

Search period start: 21 April 2018 00:00
Search period end: 01 May 2018 00:00
Orbit: 650 x 3833 km, 34.2° (Epoch: 20 April)

Date Brightness Start Highest point End Pass type
(mag) Time Alt. Az. Time Alt. Az. Time Alt. Az.
21 Apr - 01:55:39 10° SW 02:00:00 25° S 02:06:12 10° ESE visible
21 Apr - 04:14:14 10° WSW 04:19:55 26° S 04:28:38 10° SE visible
21 Apr - 06:35:53 10° SW 06:40:58 14° SSW 06:47:27 10° S daylight
21 Apr - 23:59:14 10° S 00:01:38 14° SSE 00:04:19 10° SE night (unlit)
22 Apr - 02:16:15 10° SW 02:20:41 26° S 02:27:05 10° ESE visible
22 Apr - 04:35:20 10° WSW 04:40:47 22° SSW 04:48:46 10° SSE visible
23 Apr - 00:19:10 10° SSW 00:22:10 17° SSE 00:25:42 10° ESE night (unlit)
23 Apr - 02:36:58 10° SW 02:41:25 25° S 02:47:49 10° SE visible
23 Apr - 04:56:45 10° WSW 05:01:40 18° SSW 05:08:23 10° SSE visible
24 Apr - 00:39:28 10° SW 00:42:46 19° SSE 00:46:47 10° ESE night (unlit)
24 Apr - 02:57:49 10° SW 03:02:11 22° S 03:08:21 10° SE visible
24 Apr - 05:18:52 10° SW 05:22:34 13° SSW 05:27:08 10° S visible
25 Apr - 00:59:57 10° SW 01:03:25 20° S 01:07:42 10° SE night (unlit)
25 Apr - 03:18:51 10° SW 03:22:58 19° S 03:28:35 10° SSE visible
25 Apr - 23:03:04 10° S 23:05:01 13° SSE 23:07:00 10° SE night (unlit)
26 Apr - 01:20:36 10° SW 01:24:05 20° S 01:28:27 10° SE night (unlit)
26 Apr - 03:40:14 10° SW 03:43:47 15° SSW 03:48:22 10° SSE visible
26 Apr - 23:23:02 10° SSW 23:25:37 15° SSE 23:28:19 10° SE night (unlit)
27 Apr - 01:41:25 10° SW 01:44:48 19° S 01:49:01 10° SE night (unlit)
27 Apr - 04:02:25 10° SW 04:04:37 12° SSW 04:07:08 10° S visible
27 Apr - 23:43:23 10° SW 23:46:16 17° S 23:49:19 10° SE night (unlit)
28 Apr - 02:02:25 10° SW 02:05:31 16° S 02:09:18 10° SSE night (unlit)
28 Apr - 21:46:23 10° S 21:47:46 11° SSE 21:49:06 10° SSE visible
29 Apr - 00:03:58 10° SW 00:06:55 17° S 00:10:05 10° SE night (unlit)
29 Apr - 02:23:48 10° SW 02:26:15 13° SSW 02:29:07 10° SSE night (unlit)
29 Apr - 22:05:56 10° SSW 22:08:26 14° S 22:10:45 10° SE visible
30 Apr - 00:24:44 10° SW 00:27:34 17° S 00:30:41 10° SE night (unlit)
30 Apr - 22:26:08 10° SSW 22:29:06 16° S 22:31:51 10° SE visible
